Location: Ku?niki
(51.4449°N, 17.8974°E)
Time: 18:59:21
(UTC+00:00)

SJ 16-02 - Pass Details

Date: 18 September 2020
Orbit: 606 x 616 km, 75.0° (Epoch: 22 October)

Event Time Altitude Azimuth Distance (km) Brightness Sun altitude
Rises 17:59:24 0° 221° (SW) 2,857 5.1 -10.7°
Reaches altitude 10° 18:01:43 10° 228° (SW) 1,956 4.4 -11.0°
Maximum altitude 18:05:52 42° 300° (WNW) 876 2.8 -11.7°
Drops below altitude 10° 18:10:03 10° 12° (NNE) 1,969 4.0 -12.3°
Sets 18:12:24 0° 20° (NNE) 2,878 4.8 -12.6°
